TimeIST,TemperatureF,Dew PointF,Humidity,Sea Level PressureIn,VisibilityMPH,Wind Direction,Wind SpeedMPH,Gust SpeedMPH,PrecipitationIn,Events,Conditions,WindDirDegrees,DateUTC
12:40 AM,80.6,78.8,94,29.74,1.3,WSW,5.8,-,N/A,Rain-Thunderstorm,Light Thunderstorms and Rain,240,2012-10-03 19:10:00
1:40 AM,78.8,78.8,100,29.71,0.9,Calm,Calm,-,N/A,Rain-Thunderstorm,Light Thunderstorms and Rain,0,2012-10-03 20:10:00
2:10 AM,80.6,78.8,94,29.71,1.4,Calm,Calm,-,N/A,Rain-Thunderstorm,Light Thunderstorms and Rain,0,2012-10-03 20:40:00
2:30 AM,80,78,91,29.71,1,Calm,Calm,,,Rain,Light Drizzle,,2012-10-03 21:00:00
2:40 AM,80.6,78.8,94,29.71,1.6,East,3.5,-,N/A,Rain-Thunderstorm,Light Thunderstorms and Rain,90,2012-10-03 21:10:00
3:10 AM,80.6,78.8,94,29.71,1.6,Calm,Calm,-,N/A,,Mostly Cloudy,0,2012-10-03 21:40:00
3:40 AM,80.6,78.8,94,29.68,1.6,ESE,4.6,-,N/A,,Mostly Cloudy,110,2012-10-03 22:10:00
4:10 AM,80.6,78.8,94,29.68,1.6,SE,3.5,-,N/A,,Mostly Cloudy,130,2012-10-03 22:40:00
4:40 AM,80.6,78.8,94,29.71,1.7,South,4.6,-,N/A,,Mostly Cloudy,170,2012-10-03 23:10:00
5:10 AM,80.6,78.8,94,29.71,1.7,Calm,Calm,-,N/A,,Mostly Cloudy,0,2012-10-03 23:40:00
5:30 AM,79,78,94,29.70,1,Calm,Calm,,,,Haze,,2012-10-04 00:00:00
5:40 AM,80.6,78.8,94,29.71,1.7,Calm,Calm,-,N/A,,Mostly Cloudy,0,2012-10-04 00:10:00
6:10 AM,80.6,78.8,94,29.71,1.7,SE,3.5,-,N/A,,Mostly Cloudy,140,2012-10-04 00:40:00
6:40 AM,80.6,78.8,94,29.74,1.6,Calm,Calm,-,N/A,,Haze,0,2012-10-04 01:10:00
7:10 AM,80.6,77.0,89,29.74,1.6,South,5.8,-,N/A,,Haze,180,2012-10-04 01:40:00
7:40 AM,80.6,77.0,89,29.74,1.6,South,4.6,-,N/A,,Haze,170,2012-10-04 02:10:00
8:10 AM,82.4,77.0,84,29.77,1.6,ESE,4.6,-,N/A,,Haze,120,2012-10-04 02:40:00
8:30 AM,81,76,82,29.77,1,Calm,Calm,,,Rain,Light Rain,,2012-10-04 03:00:00
8:40 AM,80.6,78.8,94,29.77,1.6,SE,5.8,-,N/A,,Haze,130,2012-10-04 03:10:00
9:40 AM,80.6,77.0,89,29.80,2.5,South,4.6,-,N/A,,Haze,170,2012-10-04 04:10:00
10:10 AM,80.6,78.8,94,29.80,2.2,South,4.6,-,N/A,,Haze,180,2012-10-04 04:40:00
10:40 AM,82.4,77.0,84,29.80,2.2,South,5.8,-,N/A,,Haze,190,2012-10-04 05:10:00
11:10 AM,84.2,77.0,79,29.77,2.5,SSW,9.2,-,N/A,,Haze,200,2012-10-04 05:40:00
11:30 AM,84,78,76,29.79,1,SSW,6.9,,,,Haze,200,2012-10-04 06:00:00
12:10 PM,86.0,77.0,74,29.77,3.1,SW,6.9,-,N/A,,Haze,230,2012-10-04 06:40:00
12:40 PM,86.0,77.0,74,29.74,3.1,WSW,6.9,-,N/A,,Haze,240,2012-10-04 07:10:00
1:10 PM,84.2,77.0,79,29.74,3.1,WSW,9.2,-,N/A,,Haze,240,2012-10-04 07:40:00
1:40 PM,84.2,77.0,79,29.74,3.1,WSW,10.4,-,N/A,,Haze,240,2012-10-04 08:10:00
2:10 PM,84.2,77.0,79,29.71,3.1,WSW,10.4,-,N/A,,Haze,240,2012-10-04 08:40:00
2:30 PM,84,76,72,29.72,1,West,4.6,,,,Haze,270,2012-10-04 09:00:00
2:40 PM,84.2,77.0,79,29.71,3.1,WSW,9.2,-,N/A,,Haze,240,2012-10-04 09:10:00
3:10 PM,84.2,77.0,79,29.71,3.1,WSW,10.4,-,N/A,,Haze,250,2012-10-04 09:40:00
3:40 PM,84.2,77.0,79,29.68,3.1,WSW,9.2,-,N/A,,Haze,240,2012-10-04 10:10:00
4:10 PM,84.2,77.0,79,29.68,3.1,SW,8.1,-,N/A,,Haze,230,2012-10-04 10:40:00
4:40 PM,84.2,77.0,79,29.71,3.1,SSW,6.9,-,N/A,,Haze,210,2012-10-04 11:10:00
5:10 PM,84.2,77.0,79,29.71,3.7,SW,5.8,-,N/A,,Mostly Cloudy,220,2012-10-04 11:40:00
5:30 PM,84,76,72,29.71,1,SW,4.6,,,,Haze,230,2012-10-04 12:00:00
5:40 PM,84.2,77.0,79,29.71,3.7,SW,5.8,-,N/A,,Mostly Cloudy,230,2012-10-04 12:10:00
6:40 PM,82.4,77.0,84,29.74,2.5,West,5.8,-,N/A,,Haze,270,2012-10-04 13:10:00
7:10 PM,82.4,77.0,84,29.74,2.5,WSW,3.5,-,N/A,,Haze,250,2012-10-04 13:40:00
7:40 PM,82.4,78.8,89,29.74,2.5,ESE,5.8,-,N/A,,Haze,120,2012-10-04 14:10:00
8:10 PM,82.4,78.8,89,29.77,2.2,ESE,5.8,-,N/A,,Haze,110,2012-10-04 14:40:00
8:30 PM,82,77,82,29.76,1,Calm,Calm,,,,Haze,,2012-10-04 15:00:00
9:40 PM,82.4,77.0,84,29.80,1.9,East,5.8,-,N/A,,Haze,90,2012-10-04 16:10:00
10:10 PM,82.4,77.0,84,29.80,1.6,ENE,4.6,-,N/A,,Haze,70,2012-10-04 16:40:00
11:30 PM,80,74,78,29.79,1,SE,4.6,,,,Haze,140,2012-10-04 18:00:00
11:40 PM,80.6,75.2,84,29.77,1.9,NE,6.9,-,N/A,,Haze,50,2012-10-04 18:10:00